Location: Star Dogged Moon Observatory
(29.7756°N, 82.0783°W)
Time: 07:10:10
(UTC-05:00)

Amateur Radio Satellites - All Passes

Search period start: 24 November 2014 06:40
Search period end: 25 November 2014 06:40
Location: Star Dogged Moon Observatory, 29.7756°N, 82.0783°W

Satellite Date Start Highest point End Downlink Frequencies (MHz)
Time Altitude Azimuth
BEESAT 3 24 Nov 06:44:58 06:49:04 59° 246° (WSW) 06:53:07 437.485
CUBESAT XI-V 24 Nov 06:56:43 07:01:20 57° 260° (W) 07:06:00 437.345
PCSat 24 Nov 06:57:56 07:02:45 34° 252° (WSW) 07:07:33 145.827
BEESAT 2 24 Nov 06:58:43 07:02:43 44° 247° (WSW) 07:06:39 435.950
SRMSAT 24 Nov 06:59:19 07:03:13 18° 196° (SSW) 07:07:07 437.500
AIST 2 24 Nov 07:23:35 07:27:45 51° 246° (WSW) 07:31:50 435.215
Cubesat XI-IV 24 Nov 07:33:52 07:38:30 31° 289° (WNW) 07:43:07 437.490
AIST 1 24 Nov 07:37:38 07:42:01 87° 265° (W) 07:46:20
ISS 24 Nov 07:41:58 07:45:10 47° 44° (NE) 07:48:22 145.825
CUTE-I 24 Nov 08:18:13 08:20:09 12° 295° (WNW) 08:22:05 437.470
CUTE 1.7 & AOD 2 24 Nov 08:21:27 08:23:25 13° 94° (E) 08:25:23 437.475
GONETS M04 24 Nov 08:29:01 08:37:38 64° 92° (E) 08:46:19
GOMX 1 24 Nov 08:46:55 08:49:43 17° 96° (E) 08:52:33 467.674
SEEDS 24 Nov 08:55:31 08:59:17 30° 98° (E) 09:03:03 437.485
BRITE-PL 24 Nov 09:04:10 09:08:05 42° 99° (E) 09:12:06 437.365/2234.400
HO-68 24 Nov 09:04:25 09:11:26 55° 102° (ESE) 09:18:23 435.675
CINEMA 3 24 Nov 09:06:32 09:08:19 12° 95° (E) 09:10:06 145.822/145.860
DX 1 24 Nov 09:11:50 09:14:02 14° 95° (E) 09:16:14 434.975-435.025
AAUSAT CUBESAT 2 24 Nov 09:16:19 09:20:18 40° 99° (E) 09:24:17 437.432
CANX-2 24 Nov 09:20:13 09:24:32 85° 102° (ESE) 09:28:50 2200.000
UNISAT 6 24 Nov 09:23:27 09:25:00 12° 68° (ENE) 09:26:34 437.425
COMPASS 1 24 Nov 09:29:59 09:34:13 72° 101° (E) 09:38:27 437.405
DELFI C3 24 Nov 09:32:16 09:35:37 23° 97° (E) 09:38:56 145.870
QB50P1 24 Nov 09:35:31 09:36:38 11° 68° (ENE) 09:37:45 145.935-145.965
ZACube-1 24 Nov 09:38:28 09:40:28 13° 95° (E) 09:42:29 437.345
ANTELSAT 24 Nov 09:49:46 09:53:19 26° 72° (ENE) 09:56:51 437.575/2403.000
DOVE 4 24 Nov 09:50:47 09:54:59 85° 102° (ESE) 09:59:19 437.250
BUGSAT 1 24 Nov 09:55:01 09:57:40 16° 70° (ENE) 10:00:19 437.445
CUTE 1.7 & AOD 2 24 Nov 09:55:28 09:59:25 37° 286° (WNW) 10:03:22 437.475
AISAT 24 Nov 09:57:38 09:59:54 14° 95° (E) 10:02:10 437.250
POPSAT HIP 1 24 Nov 09:57:44 10:00:58 21° 71° (ENE) 10:04:13 437.405
FUNcube-1 24 Nov 10:12:22 10:16:16 35° 99° (E) 10:20:15 145.935
UKube-1 24 Nov 10:12:29 10:16:50 82° 102° (ESE) 10:21:09 .
GOMX 1 24 Nov 10:24:21 10:27:48 26° 287° (WNW) 10:31:19 467.674
Oscar 11 24 Nov 10:25:23 10:29:39 57° 284° (WNW) 10:33:54 145.826/435.025
GONETS M04 24 Nov 10:28:37 10:34:55 22° 287° (WNW) 10:41:18
CUBEBUG 2 24 Nov 10:28:46 10:33:01 86° 102° (ESE) 10:37:24 437.445
POLYITAN 1 24 Nov 10:29:00 10:33:10 54° 76° (ENE) 10:37:20 437.675
QB50P2 24 Nov 10:31:48 10:36:00 59° 76° (ENE) 10:40:12 145.880/145.840
SEEDS 24 Nov 10:32:11 10:34:50 16° 290° (WNW) 10:37:30 437.485
UWE-3 24 Nov 10:33:10 10:37:25 83° 102° (ESE) 10:41:47 435.000/436.395/437.385
DUCHIFAT 1 24 Nov 10:39:06 10:43:21 73° 77° (ENE) 10:47:35 145.980
CINEMA 3 24 Nov 10:41:39 10:45:34 38° 285° (WNW) 10:49:37 145.822/145.860
TIGRISAT 24 Nov 10:44:34 10:48:49 63° 259° (W) 10:53:03 435.000
BRITE-PL 24 Nov 10:45:28 10:46:14 10° 291° (WNW) 10:47:00 437.365/2234.400
DX 1 24 Nov 10:46:22 10:50:20 36° 287° (WNW) 10:54:17 434.975-435.025
HO-68 24 Nov 10:53:19 10:58:35 23° 296° (WNW) 11:03:50 435.675
AAUSAT CUBESAT 2 24 Nov 10:53:52 10:55:35 12° 291° (WNW) 10:57:18 437.432
UNISAT 6 24 Nov 10:57:20 11:01:24 42° 261° (W) 11:05:27 437.425
NANOSAT C BR1 24 Nov 10:58:13 11:02:26 62° 259° (W) 11:06:40 145.865
ESTCUBE 1 24 Nov 10:59:19 11:03:10 27° 97° (E) 11:06:58 437.505/2401.250
VELOX 1 24 Nov 11:07:12 11:11:38 78° 283° (WNW) 11:16:01 145.980
DELFI C3 24 Nov 11:07:45 11:10:43 19° 289° (WNW) 11:13:41 145.870
QB50P1 24 Nov 11:07:59 11:12:05 46° 260° (W) 11:16:11 145.935-145.965
HUMSAT D 24 Nov 11:10:38 11:14:46 69° 283° (WNW) 11:18:58 437.325/437.525
50 SAT 24 Nov 11:12:30 11:16:34 80° 283° (WNW) 11:20:39 437.505
ZACube-1 24 Nov 11:13:00 11:16:53 36° 286° (WNW) 11:20:51 437.345
ANTELSAT 24 Nov 11:27:03 11:30:03 19° 264° (W) 11:33:03 437.575/2403.000
BUGSAT 1 24 Nov 11:29:06 11:32:53 31° 262° (W) 11:36:39 437.445
AISAT 24 Nov 11:32:33 11:36:37 37° 287° (WNW) 11:40:39 437.250
POPSAT HIP 1 24 Nov 11:33:20 11:36:43 23° 263° (W) 11:40:06 437.405
TISAT 1 24 Nov 11:45:21 11:48:21 19° 96° (E) 11:51:20 437.305
SPROUT 24 Nov 11:49:09 11:52:09 19° 96° (E) 11:55:09 437.525
FUNcube-1 24 Nov 11:50:07 11:52:18 14° 290° (WNW) 11:54:31 145.935
CUBEBUG 1 24 Nov 11:52:25 11:56:45 68° 284° (WNW) 12:01:02 437.445
Oscar 19 24 Nov 12:17:22 12:20:42 18° 68° (ENE) 12:24:02 437.125/150
ESTCUBE 1 24 Nov 12:36:28 12:39:49 21° 290° (WNW) 12:43:09 437.505/2401.250
YUBILEINY 24 Nov 12:58:48 13:04:44 20° 72° (ENE) 13:10:37 435.215
ITAMSAT 1 24 Nov 13:05:45 13:09:34 21° 69° (ENE) 13:13:22 435.822/435.867
ITUPSAT 1 24 Nov 13:15:50 13:19:58 28° 98° (E) 13:24:04 437.325
TISAT 1 24 Nov 13:20:41 13:24:06 24° 288° (WNW) 13:27:29 437.305
SPROUT 24 Nov 13:24:38 13:28:10 26° 288° (WNW) 13:31:42 437.525
SWISSCUBE 24 Nov 13:27:10 13:31:44 43° 100° (E) 13:36:15 437.505
Gurwin Techsat 1B 24 Nov 13:27:27 13:31:03 19° 68° (ENE) 13:34:40 435.225
AUBIESAT-1 24 Nov 13:29:53 13:34:43 58° 105° (ESE) 13:39:23 437.475
PHONESAT 2.4 24 Nov 13:30:26 13:32:06 13° 138° (SE) 13:33:46 2401.200-2431.200
M-CUBED/EXP-1 PRIME 24 Nov 13:33:44 13:38:40 71° 106° (ESE) 13:43:25 437.505
SO-50 24 Nov 13:38:58 13:43:48 59° 61° (ENE) 13:48:38 436.795
VERMONT LUNAR 24 Nov 13:47:26 13:50:32 27° 142° (SE) 13:53:40 437.305
Oscar 19 24 Nov 13:54:54 13:59:40 40° 261° (W) 14:04:28 437.125/150
CUSAT 1 24 Nov 13:56:29 13:58:53 21° 279° (W) 14:01:02 437.405
BEESAT 24 Nov 13:58:27 14:03:16 88° 283° (WNW) 14:08:02 436.000
DANDE 24 Nov 14:14:52 14:16:49 15° 279° (W) 14:18:37 436.750
STARS 24 Nov 14:18:30 14:21:16 16° 96° (E) 14:24:02 437.465
MaSat-1 24 Nov 14:39:53 14:41:49 15° 108° (ESE) 14:43:39 437.345
ITAMSAT 1 24 Nov 14:43:59 14:48:45 36° 261° (W) 14:53:31 435.822/435.867
YUBILEINY 24 Nov 14:53:29 15:02:05 67° 268° (W) 15:10:38 435.215
KKS-1 24 Nov 14:53:57 14:58:23 74° 102° (ESE) 15:02:48 437.445
ITUPSAT 1 24 Nov 14:53:59 14:57:38 22° 290° (WNW) 15:01:17 437.325
HORYU 2 24 Nov 15:02:19 15:06:44 81° 77° (ENE) 15:11:10 437.375
Gurwin Techsat 1B 24 Nov 15:05:40 15:10:39 41° 261° (W) 15:15:38 435.225
SWISSCUBE 24 Nov 15:06:33 15:09:10 15° 292° (WNW) 15:11:47 437.505
PHONESAT 2.4 24 Nov 15:06:49 15:10:32 87° 330° (NNW) 15:14:15 2401.200-2431.200
AUBIESAT-1 24 Nov 15:06:54 15:09:07 13° 298° (WNW) 15:11:18 437.475
M-CUBED/EXP-1 PRIME 24 Nov 15:11:49 15:13:00 11° 299° (WNW) 15:14:12 437.505
RS-15 24 Nov 15:12:13 15:21:43 35° 106° (ESE) 15:31:03 29.354- 29.394
SO-50 24 Nov 15:22:14 15:23:49 11° 253° (WSW) 15:25:24 436.795
AO-7 24 Nov 15:23:22 15:31:16 52° 68° (ENE) 15:39:13 29.400- 29.500
VERMONT LUNAR 24 Nov 15:25:28 15:28:55 42° 335° (NNW) 15:32:24 437.305
STARS 24 Nov 15:53:53 15:57:45 31° 287° (WNW) 16:01:36 437.465
MaSat-1 24 Nov 16:14:25 16:16:15 15° 295° (WNW) 16:18:00 437.345
JAS-2 24 Nov 16:35:08 16:42:14 52° 72° (ENE) 16:49:46 435.910
O/OREOS (USA 219) 24 Nov 16:38:02 16:42:26 57° 70° (ENE) 16:46:50 437.305
PHONESAT 2.4 24 Nov 16:46:42 16:49:40 22° 345° (NNW) 16:52:38 2401.200-2431.200
VERMONT LUNAR 24 Nov 17:05:37 17:08:00 16° 351° (N) 17:10:24 437.305
Cubesat XI-IV 24 Nov 17:10:45 17:14:52 23° 69° (ENE) 17:18:59 437.490
AO-7 24 Nov 17:17:28 17:24:11 28° 262° (W) 17:30:58 29.400- 29.500
RS-15 24 Nov 17:22:51 17:33:29 53° 302° (WNW) 17:44:06 29.354- 29.394
MOZHAYETS 4 24 Nov 17:22:54 17:27:34 80° 102° (ESE) 17:32:12
PRISM 24 Nov 17:36:08 17:38:38 15° 95° (E) 17:41:06 437.425
CUTE-I 24 Nov 17:51:17 17:56:32 59° 74° (ENE) 18:01:48 437.470
JAS-2 24 Nov 18:21:27 18:27:23 26° 266° (W) 18:33:40 435.910
PHONESAT 2.4 24 Nov 18:27:03 18:29:20 15° 2° (N) 18:31:37 2401.200-2431.200
VERMONT LUNAR 24 Nov 18:44:59 18:47:25 17° 9° (N) 18:49:50 437.305
GONETS M04 24 Nov 18:48:15 18:54:51 23° 73° (ENE) 19:01:22
Cubesat XI-IV 24 Nov 18:49:51 18:54:41 34° 261° (W) 18:59:32 437.490
STRAND 1 24 Nov 18:52:17 18:57:07 43° 100° (E) 19:01:55 437.568
CUBESAT XI-V 24 Nov 18:59:47 19:04:23 57° 100° (E) 19:08:54 437.345
PRISM 24 Nov 19:10:27 19:14:11 31° 287° (WNW) 19:17:53 437.425
HO-68 24 Nov 19:27:55 19:33:11 23° 64° (ENE) 19:38:27 435.675
CUTE-I 24 Nov 19:34:42 19:36:52 12° 266° (W) 19:39:02 437.470
RS-15 24 Nov 19:45:21 19:49:06 12° 329° (NNW) 19:52:52 29.354- 29.394
SEEDS 24 Nov 19:45:29 19:46:02 10° 68° (ENE) 19:46:36 437.485
PCSat 24 Nov 19:49:41 19:55:04 76° 112° (ESE) 20:00:29 145.827
GOMX 1 24 Nov 19:50:56 19:52:47 12° 69° (ENE) 19:54:36 467.674
AIST 1 24 Nov 20:00:45 20:05:07 75° 95° (E) 20:09:31
AAUSAT CUBESAT 2 24 Nov 20:03:57 20:05:54 13° 69° (ENE) 20:07:52 437.432
PHONESAT 2.4 24 Nov 20:05:42 20:08:55 27° 19° (NNE) 20:12:08 2401.200-2431.200
CANX-2 24 Nov 20:08:07 20:11:40 27° 73° (ENE) 20:15:15 2200.000
BRITE-PL 24 Nov 20:09:01 20:13:30 30° 74° (ENE) 20:17:42 437.365/2234.400
COMPASS 1 24 Nov 20:16:46 20:20:00 22° 72° (ENE) 20:23:14 437.405
VERMONT LUNAR 24 Nov 20:22:59 20:26:29 44° 25° (NNE) 20:29:57 437.305
STRAND 1 24 Nov 20:32:44 20:35:54 17° 293° (WNW) 20:39:03 437.568
BEESAT 3 24 Nov 20:34:11 20:38:14 69° 298° (WNW) 20:42:21 437.485
CUBESAT XI-V 24 Nov 20:40:27 20:41:15 10° 293° (WNW) 20:42:02 437.345
CUTE 1.7 & AOD 2 24 Nov 20:42:16 20:46:27 70° 77° (ENE) 20:50:39 437.475
GONETS M04 24 Nov 20:43:28 20:52:04 60° 269° (W) 21:00:36
BEESAT 2 24 Nov 20:48:29 20:52:27 51° 299° (WNW) 20:56:30 435.950
DOVE 4 24 Nov 20:50:43 20:55:14 43° 75° (ENE) 20:59:30 437.250
UKube-1 24 Nov 21:02:08 21:05:59 32° 72° (ENE) 21:09:51 .
FUNcube-1 24 Nov 21:04:36 21:06:46 14° 70° (ENE) 21:08:55 145.935
HO-68 24 Nov 21:13:20 21:20:20 56° 258° (WSW) 21:27:23 435.675
Oscar 11 24 Nov 21:14:14 21:18:22 49° 75° (ENE) 21:22:31 145.826/435.025
AIST 2 24 Nov 21:16:14 21:20:20 54° 299° (WNW) 21:24:31 435.215
SEEDS 24 Nov 21:17:23 21:21:24 46° 261° (W) 21:25:27 437.485
CUBEBUG 2 24 Nov 21:21:53 21:25:46 33° 74° (ENE) 21:29:34 437.445
UWE-3 24 Nov 21:25:17 21:29:03 31° 74° (ENE) 21:32:45 435.000/436.395/437.385
GOMX 1 24 Nov 21:25:40 21:30:32 52° 260° (W) 21:35:05 467.674
DX 1 24 Nov 21:35:36 21:39:59 88° 77° (ENE) 21:44:23 434.975-435.025
PCSat 24 Nov 21:36:56 21:39:00 12° 308° (NW) 21:41:04 145.827
CINEMA 3 24 Nov 21:37:21 21:41:53 88° 258° (WSW) 21:46:13 145.822/145.860
AAUSAT CUBESAT 2 24 Nov 21:37:26 21:41:13 35° 262° (W) 21:45:03 437.432
PHONESAT 2.4 24 Nov 21:44:14 21:47:53 59° 213° (SSW) 21:51:31 2401.200-2431.200
CANX-2 24 Nov 21:44:50 21:47:34 17° 265° (W) 21:50:19 2200.000
BRITE-PL 24 Nov 21:47:51 21:51:54 23° 263° (W) 21:55:45 437.365/2234.400
DELFI C3 24 Nov 21:49:36 21:53:37 66° 259° (W) 21:57:40 145.870
COMPASS 1 24 Nov 21:52:30 21:55:36 20° 264° (W) 21:58:44 437.405
ESTCUBE 1 24 Nov 21:55:11 21:57:14 13° 68° (ENE) 21:59:18 437.505/2401.250
50 SAT 24 Nov 21:56:10 21:59:37 28° 73° (ENE) 22:03:04 437.505
HUMSAT D 24 Nov 21:57:25 22:01:13 36° 74° (ENE) 22:05:01 437.325/437.525
VELOX 1 24 Nov 21:59:16 22:03:31 43° 74° (ENE) 22:07:45 145.980
VERMONT LUNAR 24 Nov 22:01:46 22:04:50 26° 218° (SW) 22:07:53 437.305
ZACube-1 24 Nov 22:03:02 22:07:18 81° 77° (ENE) 22:11:30 437.345
POLYITAN 1 24 Nov 22:22:33 22:24:55 15° 95° (E) 22:27:17 437.675
AISAT 24 Nov 22:24:21 22:28:51 88° 257° (WSW) 22:33:21 437.250
QB50P2 24 Nov 22:24:57 22:27:33 16° 95° (E) 22:30:08 145.880/145.840
DOVE 4 24 Nov 22:30:54 22:33:02 13° 265° (W) 22:35:08 437.250
DUCHIFAT 1 24 Nov 22:31:35 22:34:34 19° 96° (E) 22:37:33 145.980
FUNcube-1 24 Nov 22:38:55 22:42:48 34° 261° (W) 22:46:38 145.935
UKube-1 24 Nov 22:39:29 22:42:09 16° 264° (W) 22:44:49 .
TIGRISAT 24 Nov 22:42:17 22:46:30 41° 100° (E) 22:50:48 435.000
CUBEBUG 1 24 Nov 22:42:46 22:47:00 46° 75° (ENE) 22:51:16 437.445
ISS 24 Nov 22:43:06 22:45:54 27° 128° (SE) 22:48:44 145.825
NANOSAT C BR1 24 Nov 22:50:03 22:53:51 33° 98° (E) 22:57:39 145.865
UNISAT 6 24 Nov 22:54:59 22:59:25 62° 101° (E) 23:03:56 437.425
QB50P1 24 Nov 22:59:34 23:03:35 44° 100° (E) 23:07:36 145.935-145.965
CUBEBUG 2 24 Nov 23:00:09 23:02:29 14° 265° (W) 23:04:48 437.445
UWE-3 24 Nov 23:03:05 23:05:35 15° 265° (W) 23:08:04 435.000/436.395/437.385
BUGSAT 1 24 Nov 23:17:28 23:21:30 60° 101° (E) 23:25:28 437.445
DANDE 24 Nov 23:18:17 23:19:23 11° 79° (E) 23:20:31 436.750
JUGNU 24 Nov 23:23:27 23:27:41 20° 166° (SSE) 23:31:57 437.505
ANTELSAT 24 Nov 23:23:37 23:28:00 58° 284° (WNW) 23:32:30 437.575/2403.000
POPSAT HIP 1 24 Nov 23:24:01 23:28:14 87° 283° (WNW) 23:32:27 437.405
ESTCUBE 1 24 Nov 23:29:20 23:33:40 44° 260° (W) 23:38:02 437.505/2401.250
50 SAT 24 Nov 23:32:33 23:34:55 15° 265° (W) 23:37:16 437.505
SRMSAT 24 Nov 23:33:37 23:35:38 12° 160° (SSE) 23:37:39 437.500
HUMSAT D 24 Nov 23:35:29 23:37:06 12° 266° (W) 23:38:43 437.325/437.525
VELOX 1 24 Nov 23:38:28 23:40:13 12° 266° (W) 23:41:58 145.980
POLYITAN 1 24 Nov 23:57:08 00:00:53 32° 287° (WNW) 00:04:38 437.675
QB50P2 24 Nov 23:59:47 00:03:27 29° 287° (WNW) 00:07:07 145.880/145.840
TISAT 1 25 Nov 00:06:34 00:10:50 73° 258° (WSW) 00:15:06 437.305
DUCHIFAT 1 25 Nov 00:06:56 00:10:21 25° 288° (WNW) 00:13:47 145.980
SPROUT 25 Nov 00:12:10 00:16:29 74° 258° (WSW) 00:20:49 437.525
AUBIESAT-1 25 Nov 00:14:31 00:17:48 26° 66° (ENE) 00:21:20 437.475
ITUPSAT 1 25 Nov 00:17:58 00:21:07 18° 69° (ENE) 00:24:16 437.325
M-CUBED/EXP-1 PRIME 25 Nov 00:18:34 00:22:03 33° 68° (ENE) 00:25:50 437.505
RS-15 25 Nov 00:19:55 00:28:39 25° 46° (NE) 00:37:35 29.354- 29.394
ISS 25 Nov 00:20:05 00:22:31 19° 322° (NW) 00:24:58 145.825
TIGRISAT 25 Nov 00:20:44 00:22:53 13° 291° (WNW) 00:25:03 435.000
CUBEBUG 1 25 Nov 00:22:11 00:23:32 11° 266° (W) 00:24:52 437.445
NANOSAT C BR1 25 Nov 00:27:05 00:29:25 15° 291° (WNW) 00:31:45 145.865
SWISSCUBE 25 Nov 00:28:33 00:32:29 26° 71° (ENE) 00:36:26 437.505
CUSAT 1 25 Nov 00:37:35 00:42:37 88° 263° (W) 00:49:24 437.405
QB50P1 25 Nov 00:37:51 00:39:03 11° 292° (WNW) 00:40:14 145.935-145.965
DANDE 25 Nov 00:57:44 01:02:33 66° 263° (W) 01:09:07 436.750
BEESAT 25 Nov 00:59:06 01:03:44 53° 74° (ENE) 01:08:24 436.000
JUGNU 25 Nov 01:11:06 01:16:13 30° 175° (S) 01:21:22 437.505
SRMSAT 25 Nov 01:19:35 01:24:16 24° 168° (SSE) 01:28:57 437.500
ITAMSAT 1 25 Nov 01:26:26 01:27:56 11° 93° (E) 01:29:26 435.822/435.867
KKS-1 25 Nov 01:46:46 01:50:42 31° 73° (ENE) 01:54:38 437.445
AUBIESAT-1 25 Nov 01:50:16 01:52:49 17° 262° (W) 01:55:31 437.475
Gurwin Techsat 1B 25 Nov 01:51:05 01:52:45 11° 93° (E) 01:54:24 435.225
YUBILEINY 25 Nov 01:51:40 01:58:48 29° 85° (E) 02:05:55 435.215
ITUPSAT 1 25 Nov 01:54:16 01:58:40 36° 261° (W) 02:03:06 437.325
M-CUBED/EXP-1 PRIME 25 Nov 01:55:23 01:57:16 13° 263° (W) 01:59:13 437.505
MaSat-1 25 Nov 01:57:27 01:59:40 36° 250° (WSW) 02:02:00 437.345
SWISSCUBE 25 Nov 02:06:21 02:10:12 24° 263° (W) 02:14:05 437.505
Oscar 19 25 Nov 02:12:11 02:17:19 70° 284° (WNW) 02:22:28 437.125/150
RS-15 25 Nov 02:30:52 02:42:15 84° 246° (WSW) 02:54:10 29.354- 29.394
BEESAT 25 Nov 02:40:22 02:41:47 11° 266° (W) 02:43:13 436.000
STARS 25 Nov 02:44:35 02:49:00 77° 258° (WSW) 02:53:24 437.465
JUGNU 25 Nov 02:59:43 03:04:50 30° 185° (S) 03:09:58 437.505
HORYU 2 25 Nov 03:00:33 03:04:18 26° 98° (E) 03:08:02 437.375
ITAMSAT 1 25 Nov 03:02:37 03:07:42 60° 286° (WNW) 03:12:46 435.822/435.867
SRMSAT 25 Nov 03:07:45 03:13:00 32° 178° (S) 03:18:15 437.500
KKS-1 25 Nov 03:24:28 03:27:20 17° 264° (W) 03:30:12 437.445
Gurwin Techsat 1B 25 Nov 03:27:46 03:33:00 62° 285° (WNW) 03:38:12 435.225
AO-7 25 Nov 03:32:46 03:39:13 24° 97° (E) 03:45:37 29.400- 29.500
YUBILEINY 25 Nov 03:46:41 03:55:05 49° 280° (W) 04:03:31 435.215
SO-50 25 Nov 03:47:58 03:52:24 79° 116° (ESE) 03:56:59 436.795
MOZHAYETS 4 25 Nov 04:19:14 04:23:25 36° 73° (ENE) 04:27:37
HORYU 2 25 Nov 04:37:24 04:40:46 21° 290° (WNW) 04:44:10 437.375
PCSat 25 Nov 04:44:59 04:48:37 18° 55° (NE) 04:52:13 145.827
RS-15 25 Nov 04:47:38 04:53:07 15° 260° (W) 04:58:44 29.354- 29.394
JUGNU 25 Nov 04:49:12 04:53:23 20° 195° (SSW) 04:57:33 437.505
SRMSAT 25 Nov 04:56:44 05:01:45 28° 188° (S) 05:06:46 437.500
BEESAT 3 25 Nov 05:01:34 05:03:31 13° 53° (NE) 05:05:26 437.485
O/OREOS (USA 219) 25 Nov 05:07:17 05:09:35 14° 100° (E) 05:11:53 437.305
BEESAT 2 25 Nov 05:15:26 05:18:09 17° 54° (NE) 05:20:50 435.950
AO-7 25 Nov 05:24:05 05:32:13 59° 291° (WNW) 05:40:21 29.400- 29.500
Cubesat XI-IV 25 Nov 05:35:02 05:37:50 14° 94° (E) 05:40:37 437.490
JAS-2 25 Nov 05:37:27 05:44:21 74° 102° (ESE) 05:50:23 435.910
AIST 2 25 Nov 05:44:58 05:47:49 17° 54° (NE) 05:50:38 435.215
PRISM 25 Nov 05:54:48 05:58:59 85° 77° (ENE) 06:03:13 437.425
CUBESAT XI-V 25 Nov 05:57:43 06:01:44 29° 72° (ENE) 06:05:46 437.345
MOZHAYETS 4 25 Nov 05:58:02 06:00:42 15° 266° (W) 06:03:22
STRAND 1 25 Nov 06:02:26 06:07:01 34° 72° (ENE) 06:11:37 437.568
CUTE-I 25 Nov 06:14:54 06:19:50 39° 99° (E) 06:24:44 437.470
AIST 1 25 Nov 06:17:43 06:18:22 10° 74° (ENE) 06:19:02
PCSat 25 Nov 06:27:02 06:32:14 49° 250° (WSW) 06:37:24 145.827
